Fort Eustis, VA

7:59 AM EST on November 13, 2019 (GMT -0500)
Felker Army Air Field

Weather History for KFAF - September, 2019

Change the Weather History Date:

Monday, September 23, 2019

  Actual Average Record
Temperature  
Mean Temperature 78 °F -  
Max Temperature 88 °F 75 °F 93 °F (2010)
Min Temperature 68 °F 60 °F 52 °F (2013)
Cooling Degree Days 13    
Growing Degree Days 28 (Base 50)    
Moisture  
Dew Point 64 °F    
Average Humidity 65    
Maximum Humidity 80    
Minimum Humidity 46    
Precipitation  
Precipitation 0.00 in - - ()
Sea Level Pressure  
Sea Level Pressure 29.96 in    
Wind  
Wind Speed 6 mph ()    
Max Wind Speed 10 mph    
Max Gust Speed -    
Visibility 10.0 miles    
Events      
Averages and records for this station are not official NWS values.
T = Trace of Precipitation, MM = Missing Value Source: Averaged Metar Reports

Daily Weather History Graph

Daily Weather History Graph

Search for Another Location

Airport or City:

Astronomy

Sep. 23, 2019 Rise Set
Actual Time 6:54 AM EDT 7:02 PM EDT
Civil Twilight 6:28 AM EDT 7:28 PM EDT
Nautical Twilight 5:58 AM EDT 7:58 PM EDT
Astronomical Twilight 5:27 AM EDT 8:29 PM EDT
Moon 12:44 AM EDT (9/23) 3:45 PM EDT (9/23)
Length of Visible Light 12h 59m
Length of Day
12h 07m
Waning Crescent, 33% of the Moon is Illuminated
Sep 23
Waning Crescent
Sep 28
New
Oct 5
First Quarter
Oct 13
Full
Oct 21
Last Quarter

Hourly Weather History & Observations

Time (EDT) Temp. Heat Index Dew Point Humidity Pressure Visibility Wind Dir Wind Speed Gust Speed Precip Events Conditions
12:56 AM 71.8 °F - 63.3 °F 75% 30.07 in 10.0 mi SSW 5.8 mph - N/A   Clear
1:56 AM 71.1 °F - 63.1 °F 76% 30.06 in 10.0 mi South 4.6 mph - N/A   Clear
2:56 AM 70.2 °F - 62.6 °F 77% 30.05 in 10.0 mi SSW 3.5 mph - N/A   Clear
3:56 AM 69.6 °F - 62.1 °F 77% 30.04 in 10.0 mi SSW 4.6 mph - N/A   Clear
4:56 AM 68.9 °F - 61.7 °F 78% 30.04 in 10.0 mi SSW 5.8 mph - N/A   Clear
5:56 AM 68.7 °F - 61.9 °F 79% 30.04 in 10.0 mi SW 3.5 mph - N/A   Scattered Clouds
6:56 AM 68.0 °F - 61.5 °F 80% 30.03 in 10.0 mi SSW 5.8 mph - N/A   Partly Cloudy
7:56 AM 69.8 °F - 62.2 °F 77% 30.03 in 10.0 mi South 6.9 mph - N/A   Partly Cloudy
8:56 AM 72.5 °F - 62.6 °F 71% 30.04 in 10.0 mi South 4.6 mph - N/A   Partly Cloudy
9:56 AM 75.7 °F - 62.2 °F 63% 30.03 in 9.0 mi SSW 8.1 mph - N/A   Partly Cloudy
10:56 AM 79.9 °F - 63.7 °F 58% 30.02 in 10.0 mi SSW 9.2 mph - N/A   Partly Cloudy
11:56 AM 82.8 °F 84.3 °F 64.4 °F 54% 29.99 in 10.0 mi South 10.4 mph - N/A   Partly Cloudy
12:56 PM 85.5 °F 87.1 °F 65.1 °F 50% 29.96 in 10.0 mi South 9.2 mph - N/A   Scattered Clouds
1:56 PM 87.4 °F 89.8 °F 66.4 °F 49% 29.93 in 10.0 mi South 9.2 mph - N/A   Clear
2:56 PM 87.6 °F 89.1 °F 64.8 °F 46% 29.90 in 10.0 mi South 10.4 mph - N/A   Scattered Clouds
3:56 PM 88.3 °F 90.5 °F 65.5 °F 47% 29.88 in 10.0 mi SSW 8.1 mph - N/A   Scattered Clouds
4:56 PM 86.0 °F 87.9 °F 65.7 °F 50% 29.87 in 10.0 mi South 9.2 mph - N/A   Scattered Clouds
5:56 PM 85.5 °F 87.9 °F 66.4 °F 53% 29.87 in 10.0 mi SSW 5.8 mph - N/A   Scattered Clouds
6:56 PM 82.6 °F 84.9 °F 66.2 °F 58% 29.87 in 10.0 mi SSW 8.1 mph - N/A   Clear
7:56 PM 80.1 °F 82.3 °F 67.1 °F 64% 29.87 in 10.0 mi South 6.9 mph - N/A   Clear
8:56 PM 78.6 °F - 66.7 °F 67% 29.87 in 10.0 mi South 6.9 mph - N/A   Clear
9:56 PM 77.2 °F - 66.6 °F 70% 29.87 in 10.0 mi South 6.9 mph - N/A   Partly Cloudy
10:56 PM 76.5 °F - 65.8 °F 70% 29.86 in 10.0 mi South 6.9 mph - N/A   Mostly Cloudy
11:56 PM 76.6 °F - 65.7 °F 69% 29.86 in 10.0 mi SSW 8.1 mph - N/A   Overcast